16-12-2023, 00:00:02,    241,    1.1,    7.0,   0.00,   0.00, 1032.8,    0.8, -999.0
16-12-2023, 00:00:12,    171,    0.5,    7.0,   0.00,   0.00, 1032.8,    0.3, -999.0
16-12-2023, 00:00:21,    238,    0.6,    7.0,   0.00,   0.00, 1032.8,    0.4, -999.0
16-12-2023, 00:00:32,    232,    0.8,    7.0,   0.00,   0.00, 1032.9,    0.7, -999.0
16-12-2023, 00:00:42,    269,    0.4,    7.0,   0.00,   0.00, 1032.9,    0.4, -999.0
16-12-2023, 00:00:52,    256,    0.8,    7.0,   0.00,   0.00, 1032.9,    0.7, -999.0
16-12-2023, 00:01:01,    238,    1.5,    7.1,   0.00,   0.00, 1032.9,    0.5, -999.0
16-12-2023, 00:01:12,    233,    1.4,    7.1,   0.00,   0.00, 1032.9,    0.5, -999.0
16-12-2023, 00:01:22,    241,    2.1,    7.1,   0.00,   0.00, 1032.9,    0.7, -999.0
16-12-2023, 00:01:31,    216,    1.3,    7.1,   0.00,   0.00, 1033.0,    0.5, -999.0
16-12-2023, 00:01:41,    234,    1.8,    7.1,   0.00,   0.00, 1033.0,    0.6, -999.0
16-12-2023, 00:01:52,    243,    2.0,    7.1,   0.00,   0.00, 1032.9,    0.6, -999.0
16-12-2023, 00:02:01,    260,    2.0,    7.1,   0.00,   0.00, 1032.9,    0.5, -999.0
16-12-2023, 00:02:11,    254,    2.5,    7.1,   0.00,   0.00, 1032.9,    0.7, -999.0
16-12-2023, 00:02:22,    259,    2.1,    7.1,   0.00,   0.00, 1032.9,    0.5, -999.0
16-12-2023, 00:02:31,    254,    0.1,    7.0,   0.00,   0.00, 1032.8,    1.0, -999.0
16-12-2023, 00:02:41,    251,    0.8,    6.9,   0.00,   0.00, 1032.8,    0.7, -999.0
16-12-2023, 00:02:51,    252,    1.3,    7.1,   0.00,   0.00, 1032.9,    0.6, -999.0
16-12-2023, 00:03:02,    244,    0.8,    7.1,   0.00,   0.00, 1032.9,    0.7, -999.0
16-12-2023, 00:03:11,    243,    0.0,    7.0,   0.00,   0.00, 1032.8,    0.6, -999.0
16-12-2023, 00:03:21,    226,    0.0,    7.0,   0.00,   0.00, 1032.8,    0.6, -999.0
16-12-2023, 00:03:31,    210,    1.4,    7.1,   0.00,   0.00, 1032.9,    0.7, -999.0
16-12-2023, 00:03:41,    257,    1.2,    7.1,   0.00,   0.00, 1032.9,    0.8, -999.0
16-12-2023, 00:03:51,    253,    2.1,    7.2,   0.00,   0.00, 1032.9,    0.7, -999.0
16-12-2023, 00:04:01,    251,    1.9,    7.1,   0.00,   0.00, 1032.9,    0.7, -999.0
16-12-2023, 00:04:11,    291,    0.5,    7.1,   0.00,   0.00, 1032.9,    0.6, -999.0
16-12-2023, 00:04:21,    251,    2.5,    7.1,   0.00,   0.00, 1032.9,    0.6, -999.0
16-12-2023, 00:04:31,    239,    0.6,    7.1,   0.00,   0.00, 1032.8,    0.5, -999.0
16-12-2023, 00:04:41,    232,    0.4,    7.0,   0.00,   0.00, 1032.8,    0.6, -999.0
16-12-2023, 00:04:51,    210,    0.6,    7.2,   0.00,   0.00, 1032.8,    0.4, -999.0
16-12-2023, 00:05:01,    185,    2.4,    7.1,   0.00,   0.00, 1032.8,    0.6, -999.0
16-12-2023, 00:05:11,    183,    1.8,    7.1,   0.00,   0.00, 1032.8,    0.8, -999.0
16-12-2023, 00:05:21,    227,    0.6,    7.1,   0.00,   0.00, 1032.8,    0.4, -999.0
16-12-2023, 00:05:31,    226,    0.7,    7.1,   0.00,   0.00, 1032.8,    0.5, -999.0
16-12-2023, 00:05:41,    256,    1.5,    7.2,   0.00,   0.00, 1032.9,    0.8, -999.0
16-12-2023, 00:05:51,    212,    0.6,    7.1,   0.00,   0.00, 1032.8,    0.5, -999.0
16-12-2023, 00:06:01,    276,    0.4,    7.0,   0.00,   0.00, 1032.8,    0.4, -999.0
16-12-2023, 00:06:11,    257,    2.1,    7.2,   0.00,   0.00, 1032.8,    0.3, -999.0
16-12-2023, 00:06:21,    231,    0.6,    7.1,   0.00,   0.00, 1032.8,    0.7, -999.0
16-12-2023, 00:06:31,    223,    0.9,    7.1,   0.00,   0.00, 1032.8,    0.5, -999.0
16-12-2023, 00:06:41,    219,    0.0,    7.0,   0.00,   0.00, 1032.7,    0.4, -999.0
16-12-2023, 00:06:51,    212,    0.0,    7.0,   0.00,   0.00, 1032.7,    0.4, -999.0
16-12-2023, 00:07:01,    212,    0.0,    7.0,   0.00,   0.00, 1032.7,    0.5, -999.0
16-12-2023, 00:07:11,    214,    0.0,    7.0,   0.00,   0.00, 1032.7,    0.7, -999.0
16-12-2023, 00:07:21,    214,    0.0,    7.1,   0.00,   0.00, 1032.7,    0.5, -999.0
16-12-2023, 00:07:31,    254,    0.2,    6.9,   0.00,   0.00, 1032.7,    0.6, -999.0
16-12-2023, 00:07:41,    264,    1.4,    7.1,   0.00,   0.00, 1032.8,    0.5, -999.0
16-12-2023, 00:07:51,    263,    0.4,    7.0,   0.00,   0.00, 1032.8,    0.7, -999.0
16-12-2023, 00:08:01,    263,    0.1,    7.0,   0.00,   0.00, 1032.7,    0.7, -999.0
16-12-2023, 00:08:11,    263,    0.0,    7.0,   0.00,   0.00, 1032.7,    0.6, -999.0
16-12-2023, 00:08:21,    262,    0.0,    7.0,   0.00,   0.00, 1032.7,    0.6, -999.0
16-12-2023, 00:08:31,    262,    0.0,    7.0,   0.00,   0.00, 1032.7,    0.5, -999.0
16-12-2023, 00:08:40,    262,    0.0,    7.0,   0.00,   0.00, 1032.7,    0.7, -999.0
16-12-2023, 00:08:51,    262,    0.0,    7.0,   0.00,   0.00, 1032.7,    0.7, -999.0
16-12-2023, 00:09:01,    262,    0.0,    7.0,   0.00,   0.00, 1032.7,    0.6, -999.0
16-12-2023, 00:09:10,    262,    0.0,    7.0,   0.00,   0.00, 1032.7,    0.6, -999.0
16-12-2023, 00:09:20,    262,    0.0,    7.0,   0.00,   0.00, 1032.7,    0.6, -999.0
16-12-2023, 00:09:31,    262,    0.0,    7.0,   0.00,   0.00, 1032.7,    0.6, -999.0
16-12-2023, 00:09:41,    205,    0.2,    7.0,   0.00,   0.00, 1032.7,    0.6, -999.0
16-12-2023, 00:09:50,    204,    0.9,    7.1,   0.00,   0.00, 1032.8,    0.6, -999.0
16-12-2023, 00:10:01,    203,    0.0,    7.0,   0.00,   0.00, 1032.7,    0.5, -999.0
16-12-2023, 00:10:11,    231,    0.4,    7.0,   0.00,   0.00, 1032.8,    0.7, -999.0
16-12-2023, 00:10:20,    241,    1.0,    7.1,   0.00,   0.00, 1032.9,    0.7, -999.0
16-12-2023, 00:10:30,    226,    0.0,    7.1,   0.00,   0.00, 1032.7,    0.5, -999.0
16-12-2023, 00:10:41,    228,    0.3,    7.1,   0.00,   0.00, 1032.8,    0.6, -999.0
16-12-2023, 00:10:50,    228,    0.0,    7.0,   0.00,   0.00, 1032.7,    0.6, -999.0
16-12-2023, 00:11:00,    228,    0.0,    7.0,   0.00,   0.00, 1032.7,    0.4, -999.0
16-12-2023, 00:11:10,    232,    0.0,    7.0,   0.00,   0.00, 1032.7,    0.5, -999.0
16-12-2023, 00:11:21,    228,    0.0,    7.0,   0.00,   0.00, 1032.6,    0.5, -999.0
16-12-2023, 00:11:30,    228,    0.0,    7.0,   0.00,   0.00, 1032.6,    0.5, -999.0
16-12-2023, 00:11:40,    228,    0.0,    7.0,   0.00,   0.00, 1032.6,    0.5, -999.0
16-12-2023, 00:11:50,    167,    0.0,    7.1,   0.00,   0.00, 1032.7,    0.5, -999.0
16-12-2023, 00:12:00,    170,    0.3,    7.1,   0.00,   0.00, 1032.8,    0.6, -999.0
16-12-2023, 00:12:10,    219,    0.4,    7.1,   0.00,   0.00, 1032.8,    0.6, -999.0
16-12-2023, 00:12:20,    219,    0.0,    7.1,   0.00,   0.00, 1032.6,    0.5, -999.0
16-12-2023, 00:12:30,    220,    0.0,    7.0,   0.00,   0.00, 1032.7,    0.6, -999.0
16-12-2023, 00:12:40,    225,    0.0,    7.0,   0.00,   0.00, 1032.7,    0.5, -999.0
16-12-2023, 00:12:50,    226,    0.5,    7.2,   0.00,   0.00, 1032.8,    0.5, -999.0
16-12-2023, 00:13:00,    240,    0.3,    7.0,   0.00,   0.00, 1032.7,    0.6, -999.0
16-12-2023, 00:13:10,    238,    1.5,    7.2,   0.00,   0.00, 1032.8,    0.8, -999.0
16-12-2023, 00:13:20,    229,    2.0,    7.2,   0.00,   0.00, 1032.8,    0.8, -999.0
16-12-2023, 00:13:30,    233,    1.3,    7.2,   0.00,   0.00, 1032.8,    0.6, -999.0
16-12-2023, 00:13:40,    242,    1.3,    7.2,   0.00,   0.00, 1032.8,    0.8, -999.0
16-12-2023, 00:13:50,    242,    0.4,    7.1,   0.00,   0.00, 1032.7,    0.5, -999.0
16-12-2023, 00:14:00,    241,    0.2,    7.1,   0.00,   0.00, 1032.7,    0.4, -999.0
16-12-2023, 00:14:10,    251,    0.9,    7.0,   0.00,   0.00, 1032.7,    0.4, -999.0
16-12-2023, 00:14:20,    237,    1.4,    7.0,   0.00,   0.00, 1032.7,    0.5, -999.0
16-12-2023, 00:14:30,    275,    0.1,    7.1,   0.00,   0.00, 1032.7,    0.3, -999.0
16-12-2023, 00:14:40,    251,    2.2,    7.1,   0.00,   0.00, 1032.7,    0.7, -999.0
16-12-2023, 00:14:50,    249,    2.2,    7.1,   0.00,   0.00, 1032.7,    0.5, -999.0
16-12-2023, 00:15:00,    229,    1.9,    7.1,   0.00,   0.00, 1032.8,    0.6, -999.0
16-12-2023, 00:15:10,    239,    1.9,    7.2,   0.00,   0.00, 1032.8,    0.2, -999.0
16-12-2023, 00:15:20,    230,    0.5,    7.2,   0.00,   0.00, 1032.7,    0.7, -999.0
16-12-2023, 00:15:30,    242,    0.8,    7.1,   0.00,   0.00, 1032.8,    0.3, -999.0
16-12-2023, 00:15:40,    268,    1.8,    7.2,   0.00,   0.00, 1032.8,    0.7, -999.0
16-12-2023, 00:15:50,    266,    2.1,    7.1,   0.00,   0.00, 1032.8,    1.0, -999.0
16-12-2023, 00:16:00,    250,    1.8,    7.1,   0.00,   0.00, 1032.7,    0.5, -999.0
16-12-2023, 00:16:10,    248,    0.7,    7.1,   0.00,   0.00, 1032.7,    1.1, -999.0
16-12-2023, 00:16:19,    237,    0.6,    7.1,   0.00,   0.00, 1032.7,    0.7, -999.0
16-12-2023, 00:16:30,    208,    0.7,    7.1,   0.00,   0.00, 1032.7,    0.5, -999.0
16-12-2023, 00:16:40,    213,    0.0,    7.0,   0.00,   0.00, 1032.6,    0.1, -999.0
16-12-2023, 00:16:50,    215,    0.0,    6.9,   0.00,   0.00, 1032.6,    1.1, -999.0
16-12-2023, 00:17:00,    218,    0.0,    7.0,   0.00,   0.00, 1032.7,    0.6, -999.0
16-12-2023, 00:17:10,    217,    0.0,    7.1,   0.00,   0.00, 1032.6,    0.2, -999.0
16-12-2023, 00:17:20,    217,    0.0,    7.0,   0.00,   0.00, 1032.6,    0.3, -999.0
16-12-2023, 00:17:29,    217,    0.0,    7.0,   0.00,   0.00, 1032.6,    0.5, -999.0
16-12-2023, 00:17:40,    222,    0.0,    7.0,   0.00,   0.00, 1032.6,    0.8, -999.0
16-12-2023, 00:17:50,    191,    0.7,    7.1,   0.00,   0.00, 1032.8,    0.8, -999.0
16-12-2023, 00:18:01,    288,    0.4,    7.1,   0.00,   0.00, 1032.7,    0.5, -999.0
16-12-2023, 00:18:09,    208,    0.5,    7.1,   0.00,   0.00, 1032.7,    0.7, -999.0
16-12-2023, 00:18:20,    249,    1.6,    7.2,   0.00,   0.00, 1032.7,    0.7, -999.0
16-12-2023, 00:18:30,    248,    1.4,    7.1,   0.00,   0.00, 1032.7,    0.6, -999.0
16-12-2023, 00:18:39,    204,    0.5,    7.1,   0.00,   0.00, 1032.7,    0.6, -999.0
16-12-2023, 00:18:49,    224,    0.5,    7.1,   0.00,   0.00, 1032.7,    0.5, -999.0
16-12-2023, 00:19:00,    223,    0.0,    7.1,   0.00,   0.00, 1032.6,    0.7, -999.0
16-12-2023, 00:19:09,    224,    0.0,    7.0,   0.00,   0.00, 1032.6,    0.7, -999.0
16-12-2023, 00:19:21,    225,    0.0,    7.1,   0.00,   0.00, 1032.6,    0.6, -999.0
16-12-2023, 00:19:29,    225,    0.0,    7.0,   0.00,   0.00, 1032.6,    0.8, -999.0
16-12-2023, 00:19:40,    226,    0.0,    7.1,   0.00,   0.00, 1032.6,    0.5, -999.0
16-12-2023, 00:19:49,    228,    0.2,    7.1,   0.00,   0.00, 1032.6,    0.7, -999.0
16-12-2023, 00:19:59,    253,    0.1,    7.1,   0.00,   0.00, 1032.6,    0.7, -999.0
16-12-2023, 00:20:09,    250,    0.9,    7.1,   0.00,   0.00, 1032.7,    1.2, -999.0
16-12-2023, 00:20:19,    250,    0.1,    7.0,   0.00,   0.00, 1032.6,    0.5, -999.0
16-12-2023, 00:20:29,    230,    0.2,    7.1,   0.00,   0.00, 1032.6,    0.7, -999.0
16-12-2023, 00:20:39,    230,    0.0,    7.0,   0.00,   0.00, 1032.5,    0.6, -999.0
16-12-2023, 00:20:49,    229,    0.0,    7.0,   0.00,   0.00, 1032.6,    0.5, -999.0
16-12-2023, 00:20:59,    236,    0.2,    7.1,   0.00,   0.00, 1032.6,    0.6, -999.0
16-12-2023, 00:21:09,    236,    0.0,    7.0,   0.00,   0.00, 1032.6,    0.5, -999.0
16-12-2023, 00:21:19,    236,    0.1,    7.1,   0.00,   0.00, 1032.6,    0.1, -999.0
16-12-2023, 00:21:29,    276,    0.4,    7.1,   0.00,   0.00, 1032.6,    0.7, -999.0
16-12-2023, 00:21:39,    276,    0.0,    7.1,   0.00,   0.00, 1032.5,    0.5, -999.0
16-12-2023, 00:21:49,    274,    0.0,    7.1,   0.00,   0.00, 1032.6,    0.3, -999.0
16-12-2023, 00:21:59,    272,    0.6,    7.1,   0.00,   0.00, 1032.7,    1.3, -999.0
16-12-2023, 00:22:09,    270,    0.3,    7.1,   0.00,   0.00, 1032.6,    1.0, -999.0
16-12-2023, 00:22:19,    270,    0.0,    7.1,   0.00,   0.00, 1032.5,    0.5, -999.0
16-12-2023, 00:22:29,    271,    0.0,    7.0,   0.00,   0.00, 1032.5,    0.4, -999.0
16-12-2023, 00:22:39,    231,    1.1,    7.1,   0.00,   0.00, 1032.6,    0.5, -999.0
16-12-2023, 00:22:49,    265,    1.1,    7.2,   0.00,   0.00, 1032.7,    0.7, -999.0
16-12-2023, 00:22:59,    247,    1.3,    7.1,   0.00,   0.00, 1032.7,    0.9, -999.0
16-12-2023, 00:23:09,    243,    0.9,    7.1,   0.00,   0.00, 1032.7,    0.4, -999.0
16-12-2023, 00:23:19,    247,    1.2,    7.1,   0.00,   0.00, 1032.6,    0.5, -999.0
16-12-2023, 00:23:29,    244,    0.3,    7.1,   0.00,   0.00, 1032.6,    0.8, -999.0
16-12-2023, 00:23:39,    242,    0.9,    7.1,   0.00,   0.00, 1032.6,    0.4, -999.0
16-12-2023, 00:23:49,    255,    2.9,    7.2,   0.00,   0.00, 1032.6,    0.8, -999.0
16-12-2023, 00:23:59,    245,    0.4,    7.1,   0.00,   0.00, 1032.6,    0.4, -999.0
16-12-2023, 00:24:09,    250,    0.3,    7.1,   0.00,   0.00, 1032.6,    0.8, -999.0
16-12-2023, 00:24:19,    217,    1.7,    7.2,   0.00,   0.00, 1032.7,    0.0, -999.0
16-12-2023, 00:24:29,    195,    1.9,    7.2,   0.00,   0.00, 1032.6,    0.6, -999.0
16-12-2023, 00:24:39,    216,    0.5,    7.1,   0.00,   0.00, 1032.6,    0.2, -999.0
16-12-2023, 00:24:49,    242,    0.8,    7.1,   0.00,   0.00, 1032.6,    0.3, -999.0
16-12-2023, 00:24:59,    224,    1.2,    7.2,   0.00,   0.00, 1032.6,    0.5, -999.0
16-12-2023, 00:25:08,    225,    0.5,    7.1,   0.00,   0.00, 1032.6,    0.6, -999.0
16-12-2023, 00:25:19,    215,    3.1,    7.0,   0.00,   0.00, 1032.6,    0.9, -999.0
16-12-2023, 00:25:29,    211,    0.4,    7.1,   0.00,   0.00, 1032.6,    0.4, -999.0
16-12-2023, 00:25:39,    209,    0.0,    7.0,   0.00,   0.00, 1032.5,    0.7, -999.0
16-12-2023, 00:25:48,    183,    0.1,    7.1,   0.00,   0.00, 1032.6,    0.6, -999.0
16-12-2023, 00:25:59,    231,    0.1,    7.0,   0.00,   0.00, 1032.6,    0.6, -999.0
16-12-2023, 00:26:09,    227,    0.0,    7.0,   0.00,   0.00, 1032.6,    0.9, -999.0
16-12-2023, 00:26:18,    227,    0.0,    6.9,   0.00,   0.00, 1032.5,    0.9, -999.0
16-12-2023, 00:26:29,    228,    0.0,    7.0,   0.00,   0.00, 1032.5,    0.6, -999.0
16-12-2023, 00:26:39,    241,    1.3,    7.0,   0.00,   0.00, 1032.6,    0.7, -999.0
16-12-2023, 00:26:48,    225,    0.9,    7.1,   0.00,   0.00, 1032.7,    0.7, -999.0
16-12-2023, 00:26:58,    225,    0.0,    7.1,   0.00,   0.00, 1032.6,    1.0, -999.0
16-12-2023, 00:27:09,    225,    0.0,    7.0,   0.00,   0.00, 1032.5,    0.8, -999.0
16-12-2023, 00:27:19,    225,    0.0,    7.0,   0.00,   0.00, 1032.5,    1.0, -999.0
16-12-2023, 00:27:28,    224,    0.0,    7.0,   0.00,   0.00, 1032.5,    0.4, -999.0
16-12-2023, 00:27:38,    220,    0.0,    7.0,   0.00,   0.00, 1032.5,    0.0, -999.0
16-12-2023, 00:27:49,    217,    0.0,    7.0,   0.00,   0.00, 1032.5,    0.2, -999.0
16-12-2023, 00:27:58,    232,    0.3,    7.1,   0.00,   0.00, 1032.6,    0.7, -999.0
16-12-2023, 00:28:08,    206,    0.4,    7.1,   0.00,   0.00, 1032.6,    0.7, -999.0
16-12-2023, 00:28:18,    277,    1.3,    7.2,   0.00,   0.00, 1032.6,    0.7, -999.0
16-12-2023, 00:28:29,    276,    0.5,    7.2,   0.00,   0.00, 1032.6,    0.7, -999.0
16-12-2023, 00:28:38,    197,    0.1,    7.1,   0.00,   0.00, 1032.6,    0.3, -999.0
16-12-2023, 00:28:48,    222,    0.4,    7.1,   0.00,   0.00, 1032.6,    0.5, -999.0
16-12-2023, 00:28:58,    222,    0.0,    7.1,   0.00,   0.00, 1032.6,    1.0, -999.0
16-12-2023, 00:29:08,    221,    0.0,    7.0,   0.00,   0.00, 1032.5,    0.8, -999.0
16-12-2023, 00:29:18,    224,    0.1,    7.1,   0.00,   0.00, 1032.5,    0.5, -999.0
16-12-2023, 00:29:28,    231,    1.0,    7.2,   0.00,   0.00, 1032.6,    0.4, -999.0
16-12-2023, 00:29:38,    231,    0.5,    7.0,   0.00,   0.00, 1032.6,    0.8, -999.0
16-12-2023, 00:29:48,    231,    0.0,    7.0,   0.00,   0.00, 1032.5,    0.5, -999.0
16-12-2023, 00:29:58,    231,    0.0,    7.0,   0.00,   0.00, 1032.5,    0.6, -999.0
16-12-2023, 00:30:08,    229,    0.0,    7.1,   0.00,   0.00, 1032.5,    0.7, -999.0
16-12-2023, 00:30:18,    184,    0.0,    7.1,   0.00,   0.00, 1032.5,    0.5, -999.0
16-12-2023, 00:30:28,    183,    0.0,    7.1,   0.00,   0.00, 1032.5,    0.3, -999.0
16-12-2023, 00:30:38,    185,    0.0,    7.1,   0.00,   0.00, 1032.5,    0.5, -999.0
16-12-2023, 00:30:48,    185,    0.0,    7.0,   0.00,   0.00, 1032.5,    0.6, -999.0
16-12-2023, 00:30:58,    220,    0.0,    7.1,   0.00,   0.00, 1032.5,    0.6, -999.0
16-12-2023, 00:31:08,    220,    0.0,    7.1,   0.00,   0.00, 1032.5,    0.6, -999.0
16-12-2023, 00:31:18,    220,    0.0,    7.1,   0.00,   0.00, 1032.5,    0.6, -999.0
16-12-2023, 00:31:28,    220,    0.0,    7.1,   0.00,   0.00, 1032.5,    0.7, -999.0
16-12-2023, 00:31:38,    218,    0.0,    7.1,   0.00,   0.00, 1032.5,    0.6, -999.0
16-12-2023, 00:31:48,    192,    0.3,    7.1,   0.00,   0.00, 1032.6,    0.4, -999.0
16-12-2023, 00:31:58,    193,    0.0,    7.0,   0.00,   0.00, 1032.5,    0.4, -999.0
16-12-2023, 00:32:08,    193,    0.0,    7.0,   0.00,   0.00, 1032.5,    0.5, -999.0
16-12-2023, 00:32:18,    193,    0.0,    7.0,   0.00,   0.00, 1032.5,    0.4, -999.0
16-12-2023, 00:32:28,    194,    0.0,    7.0,   0.00,   0.00, 1032.5,    0.5, -999.0
16-12-2023, 00:32:38,    193,    0.0,    7.0,   0.00,   0.00, 1032.5,    0.5, -999.0
16-12-2023, 00:32:48,    202,    0.0,    7.0,   0.00,   0.00, 1032.5,    0.5, -999.0
16-12-2023, 00:32:57,    199,    0.1,    7.1,   0.00,   0.00, 1032.6,    0.5, -999.0
16-12-2023, 00:33:08,    199,    0.2,    7.0,   0.00,   0.00, 1032.6,    0.6, -999.0
16-12-2023, 00:33:18,    199,    0.0,    7.0,   0.00,   0.00, 1032.5,    0.6, -999.0
16-12-2023, 00:33:28,    204,    0.0,    7.0,   0.00,   0.00, 1032.5,    0.7, -999.0
16-12-2023, 00:33:38,    200,    0.0,    7.1,   0.00,   0.00, 1032.5,    0.4, -999.0
16-12-2023, 00:33:48,    202,    0.0,    7.1,   0.00,   0.00, 1032.5,    0.7, -999.0
16-12-2023, 00:33:58,    203,    0.0,    7.0,   0.00,   0.00, 1032.5,    0.5, -999.0
16-12-2023, 00:34:07,    213,    0.7,    7.1,   0.00,   0.00, 1032.6,    0.8, -999.0
16-12-2023, 00:34:18,    209,    0.0,    7.1,   0.00,   0.00, 1032.5,    0.7, -999.0
16-12-2023, 00:34:28,    184,    0.0,    7.1,   0.00,   0.00, 1032.5,    0.6, -999.0
16-12-2023, 00:34:37,    191,    0.2,    7.1,   0.00,   0.00, 1032.6,    0.5, -999.0
16-12-2023, 00:34:47,    237,    0.5,    7.0,   0.00,   0.00, 1032.6,    0.5, -999.0
16-12-2023, 00:34:58,    284,    2.1,    7.1,   0.00,   0.00, 1032.6,    0.6, -999.0
16-12-2023, 00:35:08,    226,    0.9,    7.1,   0.00,   0.00, 1032.7,    0.5, -999.0
16-12-2023, 00:35:17,    254,    0.7,    7.2,   0.00,   0.00, 1032.6,    0.6, -999.0
16-12-2023, 00:35:27,    210,    0.0,    7.0,   0.00,   0.00, 1032.5,    0.6, -999.0
16-12-2023, 00:35:38,    224,    0.8,    7.1,   0.00,   0.00, 1032.6,    0.9, -999.0
16-12-2023, 00:35:47,    240,    0.8,    7.1,   0.00,   0.00, 1032.6,    0.5, -999.0
16-12-2023, 00:35:57,    249,    0.8,    7.1,   0.00,   0.00, 1032.6,    0.4, -999.0
16-12-2023, 00:36:07,    244,    0.6,    7.1,   0.00,   0.00, 1032.7,    0.5, -999.0
16-12-2023, 00:36:17,    215,    0.3,    7.1,   0.00,   0.00, 1032.6,    0.6, -999.0
16-12-2023, 00:36:27,    214,    0.9,    7.1,   0.00,   0.00, 1032.6,    0.7, -999.0
16-12-2023, 00:36:37,    221,    0.7,    7.1,   0.00,   0.00, 1032.6,    1.1, -999.0
16-12-2023, 00:36:48,    221,    0.0,    7.0,   0.00,   0.00, 1032.5,    0.5, -999.0
16-12-2023, 00:36:57,    220,    0.0,    7.1,   0.00,   0.00, 1032.5,    0.6, -999.0
16-12-2023, 00:37:07,    219,    0.1,    7.1,   0.00,   0.00, 1032.5,    0.4, -999.0
16-12-2023, 00:37:17,    218,    0.3,    7.1,   0.00,   0.00, 1032.6,    0.5, -999.0
16-12-2023, 00:37:27,    193,    0.3,    7.1,   0.00,   0.00, 1032.6,    0.8, -999.0
16-12-2023, 00:37:37,    205,    0.6,    7.1,   0.00,   0.00, 1032.6,    0.8, -999.0
16-12-2023, 00:37:47,    187,    0.7,    7.1,   0.00,   0.00, 1032.6,    0.6, -999.0
16-12-2023, 00:37:57,    187,    0.1,    7.1,   0.00,   0.00, 1032.5,    0.4, -999.0
16-12-2023, 00:38:07,    178,    1.0,    7.1,   0.00,   0.00, 1032.6,    0.6, -999.0
16-12-2023, 00:38:17,    204,    1.4,    7.1,   0.00,   0.00, 1032.6,    0.6, -999.0
16-12-2023, 00:38:27,    206,    1.1,    7.1,   0.00,   0.00, 1032.6,    0.4, -999.0
16-12-2023, 00:38:37,    232,    0.7,    7.1,   0.00,   0.00, 1032.6,    0.4, -999.0
16-12-2023, 00:38:47,    234,    0.1,    7.0,   0.00,   0.00, 1032.6,    0.5, -999.0
16-12-2023, 00:38:57,    230,    0.0,    7.0,   0.00,   0.00, 1032.5,    0.7, -999.0
16-12-2023, 00:39:07,    231,    0.0,    7.0,   0.00,   0.00, 1032.5,    0.5, -999.0
16-12-2023, 00:39:17,    181,    0.0,    7.0,   0.00,   0.00, 1032.5,    0.6, -999.0
16-12-2023, 00:39:27,    184,    0.0,    7.0,   0.00,   0.00, 1032.5,    0.5, -999.0
16-12-2023, 00:39:37,    180,    0.2,    7.1,   0.00,   0.00, 1032.6,    0.5, -999.0
16-12-2023, 00:39:47,    204,    0.5,    7.1,   0.00,   0.00, 1032.6,    0.7, -999.0
16-12-2023, 00:39:57,    204,    1.0,    7.1,   0.00,   0.00, 1032.6,    0.7, -999.0
16-12-2023, 00:40:07,    187,    1.0,    7.1,   0.00,   0.00, 1032.6,    0.6, -999.0
16-12-2023, 00:40:17,    168,    0.0,    7.0,   0.00,   0.00, 1032.5,    0.4, -999.0
16-12-2023, 00:40:27,    218,    1.0,    7.1,   0.00,   0.00, 1032.6,    0.6, -999.0
16-12-2023, 00:40:37,    218,    1.0,    7.1,   0.00,   0.00, 1032.6,    0.5, -999.0
16-12-2023, 00:40:47,    195,    0.4,    7.0,   0.00,   0.00, 1032.6,    0.7, -999.0
16-12-2023, 00:40:57,    193,    0.0,    7.0,   0.00,   0.00, 1032.5,    0.6, -999.0
16-12-2023, 00:41:07,    189,    0.0,    7.0,   0.00,   0.00, 1032.6,    0.6, -999.0
16-12-2023, 00:41:17,    201,    0.2,    7.1,   0.00,   0.00, 1032.6,    0.6, -999.0
16-12-2023, 00:41:27,    201,    0.0,    7.0,   0.00,   0.00, 1032.5,    0.5, -999.0
16-12-2023, 00:41:37,    201,    0.0,    7.0,   0.00,   0.00, 1032.5,    0.6, -999.0
16-12-2023, 00:41:46,    201,    0.0,    7.0,   0.00,   0.00, 1032.5,    0.5, -999.0
16-12-2023, 00:41:57,    218,    0.0,    7.0,   0.00,   0.00, 1032.5,    0.6, -999.0
16-12-2023, 00:42:07,    250,    2.0,    7.0,   0.00,   0.00, 1032.6,    0.8, -999.0
16-12-2023, 00:42:17,    229,    2.0,    7.1,   0.00,   0.00, 1032.6,    0.6, -999.0
16-12-2023, 00:42:26,    241,    2.0,    7.1,   0.00,   0.00, 1032.6,    0.7, -999.0
16-12-2023, 00:42:37,    221,    1.0,    7.0,   0.00,   0.00, 1032.6,    0.4, -999.0
16-12-2023, 00:42:47,    218,    0.0,    7.0,   0.00,   0.00, 1032.6,    0.7, -999.0
16-12-2023, 00:42:56,    217,    0.0,    7.0,   0.00,   0.00, 1032.5,    0.7, -999.0
16-12-2023, 00:43:07,    245,    0.2,    7.0,   0.00,   0.00, 1032.6,    0.4, -999.0
16-12-2023, 00:43:17,    258,    0.7,    7.1,   0.00,   0.00, 1032.6,    1.0, -999.0
16-12-2023, 00:43:26,    258,    0.3,    7.0,   0.00,   0.00, 1032.6,    0.6, -999.0
16-12-2023, 00:43:36,    258,    0.5,    7.0,   0.00,   0.00, 1032.6,    0.6, -999.0
16-12-2023, 00:43:47,    257,    0.2,    7.1,   0.00,   0.00, 1032.6,    1.0, -999.0
16-12-2023, 00:43:56,    257,    0.0,    7.0,   0.00,   0.00, 1032.5,    0.5, -999.0
16-12-2023, 00:44:06,    230,    0.0,    7.0,   0.00,   0.00, 1032.5,    0.5, -999.0
16-12-2023, 00:44:16,    239,    0.2,    7.0,   0.00,   0.00, 1032.5,    0.4, -999.0
16-12-2023, 00:44:27,    238,    0.0,    7.0,   0.00,   0.00, 1032.6,    0.5, -999.0
16-12-2023, 00:44:36,    225,    0.2,    7.0,   0.00,   0.00, 1032.6,    0.4, -999.0
16-12-2023, 00:44:46,    241,    1.5,    7.0,   0.00,   0.00, 1032.6,    0.6, -999.0
16-12-2023, 00:44:56,    236,    3.4,    7.1,   0.00,   0.00, 1032.6,    0.7, -999.0
16-12-2023, 00:45:06,    246,    2.8,    7.1,   0.00,   0.00, 1032.6,    0.7, -999.0
16-12-2023, 00:45:16,    197,    1.0,    6.9,   0.00,   0.00, 1032.6,    0.3, -999.0
16-12-2023, 00:45:26,    228,    1.3,    7.0,   0.00,   0.00, 1032.6,    0.6, -999.0
16-12-2023, 00:45:36,    226,    1.3,    7.0,   0.00,   0.00, 1032.6,    0.8, -999.0
16-12-2023, 00:45:46,    204,    1.4,    7.0,   0.00,   0.00, 1032.6,    0.6, -999.0
16-12-2023, 00:45:56,    198,    1.4,    7.0,   0.00,   0.00, 1032.6,    0.7, -999.0
16-12-2023, 00:46:06,    219,    1.9,    6.9,   0.00,   0.00, 1032.6,    0.7, -999.0
16-12-2023, 00:46:16,    193,    1.1,    7.0,   0.00,   0.00, 1032.6,    0.5, -999.0
16-12-2023, 00:46:26,    190,    1.3,    7.0,   0.00,   0.00, 1032.6,    0.7, -999.0
16-12-2023, 00:46:36,    198,    0.0,    6.9,   0.00,   0.00, 1032.5,    0.6, -999.0
16-12-2023, 00:46:46,    256,    0.4,    7.0,   0.00,   0.00, 1032.6,    0.6, -999.0